| time (UTC) | temp C | wind direction | speed KPH | gust KPH | rain 1hr cm | rain 24hr cm | rain mn cm | humidity % | barometer mb |
| 20260507161539 | 14 | 360 | 9.7 | 19.3 | 0.00 | 0.00 | 0.00 | 58 | 1018.8 |
| 20260507160032 | 13 | 12 | 9.7 | 20.9 | 0.00 | 0.00 | 0.00 | 59 | 1018.8 |
| 20260507154534 | 13 | 20 | 12.9 | 20.9 | 0.00 | 0.00 | 0.00 | 60 | 1018.9 |
| 20260507153032 | 13 | 3 | 8.0 | 17.7 | 0.00 | 0.00 | 0.00 | 61 | 1018.9 |
| 20260507150047 | 11 | 355 | 6.4 | 12.9 | 0.00 | 0.00 | 0.00 | 70 | 1019.0 |
| 20260507144644 | 11 | 4 | 8.0 | 14.5 | 0.00 | 0.00 | 0.00 | 72 | 1019.0 |
| 20260507141642 | 10 | 77 | 3.2 | 6.4 | 0.00 | 0.00 | 0.00 | 75 | 1018.9 |
| 20260507140035 | 11 | 33 | 4.8 | 11.3 | 0.00 | 0.00 | 0.00 | 72 | 1018.7 |
| 20260507134533 | 11 | 317 | 4.8 | 11.3 | 0.00 | 0.00 | 0.00 | 72 | 1018.7 |
| 20260507133041 | 11 | 325 | 6.4 | 12.9 | 0.00 | 0.00 | 0.00 | 72 | 1018.7 |
| 20260507131536 | 11 | 318 | 8.0 | 25.7 | 0.00 | 0.00 | 0.00 | 73 | 1018.7 |
| 20260507130036 | 11 | 333 | 8.0 | 20.9 | 0.00 | 0.00 | 0.00 | 73 | 1018.7 |
| 20260507123031 | 12 | 325 | 8.0 | 24.1 | 0.00 | 0.00 | 0.00 | 70 | 1018.7 |
| 20260507121532 | 12 | 305 | 9.7 | 25.7 | 0.00 | 0.00 | 0.00 | 70 | 1018.6 |
| 20260507114535 | 12 | 278 | 8.0 | 32.2 | 0.00 | 0.00 | 0.00 | 69 | 1018.6 |
| 20260507113033 | 12 | 264 | 11.3 | 32.2 | 0.00 | 0.00 | 0.00 | 69 | 1018.6 |
| 20260507111652 | 12 | 252 | 11.3 | 29.0 | 0.00 | 0.00 | 0.00 | 70 | 1018.6 |
| 20260507110108 | 12 | 265 | 8.0 | 29.0 | 0.00 | 0.00 | 0.00 | 70 | 1018.6 |
| 20260507103037 | 12 | 255 | 8.0 | 27.4 | 0.00 | 0.00 | 0.00 | 69 | 1018.5 |
| 20260507101537 | 12 | 260 | 8.0 | 30.6 | 0.00 | 0.00 | 0.00 | 67 | 1018.6 |
| 20260507100049 | 13 | 246 | 4.8 | 16.1 | 0.00 | 0.00 | 0.00 | 66 | 1018.7 |
| 20260507093036 | 13 | 256 | 6.4 | 19.3 | 0.00 | 0.00 | 0.00 | 65 | 1018.9 |
| 20260507091530 | 13 | 258 | 6.4 | 16.1 | 0.00 | 0.00 | 0.00 | 66 | 1019.0 |
| 20260507083033 | 12 | 240 | 3.2 | 14.5 | 0.00 | 0.00 | 0.00 | 70 | 1019.5 |
| 20260507081536 | 13 | 299 | 6.4 | 17.7 | 0.00 | 0.00 | 0.00 | 70 | 1019.5 |
| 20260507080031 | 13 | 298 | 9.7 | 20.9 | 0.00 | 0.00 | 0.00 | 71 | 1019.5 |
| 20260507074536 | 13 | 311 | 8.0 | 16.1 | 0.00 | 0.00 | 0.00 | 70 | 1019.6 |
| 20260507071534 | 13 | 299 | 8.0 | 20.9 | 0.00 | 0.00 | 0.00 | 69 | 1019.5 |
| 20260507070035 | 13 | 289 | 3.2 | 12.9 | 0.00 | 0.00 | 0.00 | 70 | 1019.5 |
| 20260507064538 | 13 | 339 | 4.8 | 19.3 | 0.00 | 0.00 | 0.00 | 70 | 1019.6 |
| 20260507063036 | 13 | 312 | 4.8 | 16.1 | 0.00 | 0.00 | 0.00 | 69 | 1019.6 |
| 20260507054536 | 15 | 310 | 4.8 | 12.9 | 0.00 | 0.00 | 0.00 | 65 | 1020.0 |
| 20260507051535 | 15 | 320 | 3.2 | 25.7 | 0.00 | 0.00 | 0.00 | 65 | 1020.0 |
| 20260507050036 | 14 | 2 | 4.8 | 16.1 | 0.00 | 0.00 | 0.00 | 66 | 1020.0 |
| 20260507044610 | 14 | 4 | 4.8 | 12.9 | 0.00 | 0.00 | 0.00 | 63 | 1019.9 |
| 20260507043036 | 15 | 333 | 4.8 | 11.3 | 0.00 | 0.00 | 0.00 | 60 | 1019.8 |
| 20260507041532 | 15 | 99 | 6.4 | 17.7 | 0.00 | 0.00 | 0.00 | 60 | 1019.7 |
| 20260507040045 | 15 | 74 | 1.6 | 8.0 | 0.00 | 0.00 | 0.00 | 60 | 1019.7 |
| 20260507034532 | 15 | 131 | 4.8 | 12.9 | 0.00 | 0.00 | 0.00 | 59 | 1019.6 |
| 20260507033035 | 16 | 2 | 4.8 | 16.1 | 0.00 | 0.00 | 0.00 | 59 | 1019.6 |
| 20260507024535 | 17 | 291 | 3.2 | 16.1 | 0.00 | 0.00 | 0.00 | 57 | 1019.7 |
| 20260507023109 | 17 | 288 | 8.0 | 25.7 | 0.00 | 0.00 | 0.00 | 55 | 1019.7 |
| 20260507021537 | 18 | 254 | 9.7 | 22.5 | 0.00 | 0.00 | 0.00 | 53 | 1019.6 |
| 20260507020037 | 18 | 288 | 9.7 | 25.7 | 0.00 | 0.00 | 0.00 | 52 | 1019.3 |
| 20260507014533 | 18 | 289 | 8.0 | 20.9 | 0.00 | 0.00 | 0.00 | 51 | 1019.2 |
| 20260507013145 | 19 | 302 | 11.3 | 29.0 | 0.00 | 0.00 | 0.00 | 49 | 1019.1 |
| 20260507011535 | 19 | 300 | 11.3 | 25.7 | 0.00 | 0.00 | 0.00 | 47 | 1019.1 |
| 20260507004531 | 20 | 300 | 11.3 | 27.4 | 0.00 | 0.00 | 0.00 | 43 | 1019.0 |
| 20260507003037 | 21 | 295 | 9.7 | 24.1 | 0.00 | 0.00 | 0.00 | 42 | 1019.0 |
| 20260507001531 | 21 | 283 | 9.7 | 25.7 | 0.00 | 0.00 | 0.00 | 42 | 1018.9 |
| 20260507000034 | 21 | 274 | 8.0 | 19.3 | 0.00 | 0.00 | 0.00 | 41 | 1018.7 |
| 20260506234536 | 21 | 292 | 11.3 | 30.6 | 0.00 | 0.00 | 0.00 | 40 | 1018.6 |
| 20260506233033 | 21 | 296 | 9.7 | 22.5 | 0.00 | 0.00 | 0.00 | 39 | 1018.5 |
| 20260506230038 | 22 | 300 | 11.3 | 32.2 | 0.00 | 0.00 | 0.00 | 40 | 1018.5 |
| 20260506224535 | 22 | 293 | 11.3 | 24.1 | 0.00 | 0.00 | 0.00 | 40 | 1018.6 |
| 20260506221532 | 22 | 291 | 9.7 | 27.4 | 0.00 | 0.00 | 0.00 | 43 | 1019.0 |
| 20260506220038 | 22 | 301 | 11.3 | 30.6 | 0.00 | 0.00 | 0.00 | 43 | 1018.9 |
| 20260506214534 | 21 | 293 | 12.9 | 27.4 | 0.00 | 0.00 | 0.00 | 43 | 1018.8 |
| 20260506213110 | 22 | 301 | 12.9 | 29.0 | 0.00 | 0.00 | 0.00 | 43 | 1018.7 |
| 20260506211534 | 22 | 287 | 9.7 | 27.4 | 0.00 | 0.00 | 0.00 | 43 | 1018.8 |
| 20260506210032 | 22 | 226 | 6.4 | 22.5 | 0.00 | 0.00 | 0.00 | 44 | 1018.9 |
| 20260506203033 | 21 | 309 | 11.3 | 22.5 | 0.00 | 0.00 | 0.00 | 46 | 1018.9 |
| 20260506201536 | 21 | 311 | 9.7 | 19.3 | 0.00 | 0.00 | 0.00 | 44 | 1018.9 |
| 20260506194532 | 21 | 249 | 6.4 | 17.7 | 0.00 | 0.00 | 0.00 | 47 | 1018.9 |
| 20260506193035 | 21 | 252 | 6.4 | 20.9 | 0.00 | 0.00 | 0.00 | 50 | 1019.1 |
| 20260506190037 | 20 | 287 | 8.0 | 22.5 | 0.00 | 0.00 | 0.00 | 52 | 1019.1 |
| 20260506184535 | 20 | 302 | 11.3 | 22.5 | 0.00 | 0.00 | 0.00 | 52 | 1018.9 |
| 20260506183028 | 20 | 300 | 6.4 | 14.5 | 0.00 | 0.00 | 0.00 | 55 | 1018.9 |
| 20260506181530 | 19 | 312 | 9.7 | 20.9 | 0.00 | 0.00 | 0.00 | 57 | 1019.0 |
| 20260506180035 | 19 | 318 | 12.9 | 25.7 | 0.00 | 0.00 | 0.00 | 56 | 1019.0 |
| 20260506173032 | 18 | 5 | 6.4 | 12.9 | 0.00 | 0.00 | 0.00 | 59 | 1018.7 |
| 20260506171554 | 18 | 5 | 6.4 | 14.5 | 0.00 | 0.00 | 0.00 | 62 | 1018.8 |
| 20260506170034 | 17 | 358 | 8.0 | 16.1 | 0.00 | 0.00 | 0.00 | 63 | 1018.8 |
| 20260506164535 | 17 | 11 | 6.4 | 16.1 | 0.00 | 0.00 | 0.00 | 64 | 1018.9 |
| 20260506163035 | 16 | 329 | 11.3 | 29.0 | 0.00 | 0.00 | 0.00 | 65 | 1019.1 |